Tracking 28794 objects as of 21-Apr-2024
HD Live streaming from Space Station
objects crossing your sky now

SHERPA-LTC2

Track SHERPA-LTC2 now!
10-day predictions


NORAD ID: 53754
Int'l Code: 2022-107BG
Perigee: 395.9 km
Apogee: 1,032.8 km
Inclination: 53.2 °
Period: 98.9 minutes
Semi major axis: 7085 km
RCS: Unknown
Launch date: September 5, 2022
Source: United States (US)
Launch site: AIR FORCE EASTERN TEST RANGE (AFETR)
Your satellite tracking list
Your tracking list is empty




NASA's NSSDC Master Catalog

Two Line Element Set (TLE):
1 53754U 22107BG  24112.67012062  .00016534  00000-0  92000-3 0  9993
2 53754  53.2392 278.8647 0449445 206.9586 150.7383 14.55659773 87383
Source of the keplerian elements: AFSPC